Find Starlink 31147

NORAD ID: 58681 Int'l Des: 2023-211 Owner: SPXS Country: US Constellation: starlink operational
LEOCIRCULAR

現在のビュー

3D地球を読み込み中...

About Starlink 31147

Starlink 31147 (NORAD 58681) is a starlink constellation satellite (v2 mini) launched Dec 29, 2023 by SPXS of US. It operates in LEO, CIRCULAR orbit with a mass of 730.00 kg.

Starlink 31147について

説明を読み込み中...

次回通過

Passes for default location (London). Set your location on the main map for personalized predictions.

高度履歴

Loading altitude history...

軌道要素

1 58681U 23211Q 26176.51609769 .00003096 00000-0 12194-3 0 9990
2 58681 43.0053 196.4757 0002390 276.2510 83.8069 15.27597219138959
Epoch: Jun 25, 2026 • Age: 42 hours

現在のステータス

高度 486.1 km
速度 7.62 km/s
衛星直下点 -19.73°S, 149.24°E
打ち上げ日 Dec 29, 2023
運用期間 2.4 years
タイプ internet

技術仕様

分類 Payload
質量 730.00 kg
乾燥質量 700.00 kg
総質量 730.00 kg
長さ 0.30 m
直径 4.10 m
スパン 29.00 m
形状 Box + pan
製造者 SPXS
バスタイプ Starlink V2M
フェーズステータス In Orbit
所有者/国 SPXS/US

Most Searched